Location: Chuathbaluk
(61.5726°N, 159.2454°W)
Time: 13:30:45
(UTC+00:00)

ZACube-1 - Pass Details

Date: 22 January 2021
Orbit: 583 x 666 km, 97.6° (Epoch: 01 March)

Event Time Altitude Azimuth Distance (km) Brightness Sun altitude
Rises 03:51:29 0° 203° (SSW) 2,952 ? -10.7°
Reaches altitude 10° 03:54:03 10° 218° (SW) 2,060 ? -10.9°
Maximum altitude 03:57:41 24° 272° (W) 1,380 ? -11.4°
Drops below altitude 10° 04:01:24 10° 326° (NW) 2,099 ? -11.8°
Sets 04:04:03 0° 340° (NNW) 3,022 ? -12.1°
